Location: Bouchavesnes-Bergen
(49.9859°N, 2.9203°E)
Time: 04:58:57
(UTC+00:00)

CZ-4C R/B - Pass Details

Date: 09 March 2021
Orbit: 407 x 487 km, 97.7° (Epoch: 11 April)

Event Time Altitude Azimuth Distance (km) Brightness Sun altitude
Exits shadow 05:04:44 20° 260° (W) 1,117 4.2 -12.1°
Maximum altitude 05:05:00 20° 267° (W) 1,112 4.2 -12.0°
Drops below altitude 10° 05:07:39 10° 317° (NW) 1,622 5.4 -11.6°
Sets 05:10:08 0° 334° (NNW) 2,521 6.5 -11.2°
